Regional Weather Roundup
Issued by NWS

Home | Current Version | Previous Version | Graphics & Text | Print | Product List | Glossary On
Versions: 1 2 3 4 5 6 7 8 9 10 11 12 13 14 15 16 17 18 19 20 21 22 23 24 25 26 27 28 29 30 31 32 33 34 35 36 37 38 39 40 41 42 43 44 45 46 47 48 49 50
529
ASUS43 KBIS 051002
RWRND

NORTH DAKOTA REGIONAL WEATHER ROUNDUP
NATIONAL WEATHER SERVICE BISMARCK ND
500 AM CDT THU MAY 05 2016

NOTE: "FAIR" INDICATES FEW OR NO CLOUDS BELOW 12,000 FEET WITH NO
SIGNIFICANT WEATHER AND/OR OBSTRUCTIONS TO VISIBILITY.


NDZ001>003-009>011-017-051100-
NORTHWEST NORTH DAKOTA

CITY           SKY/WX    TMP DP  RH WIND       PRES   REMARKS
WILLISTON      CLEAR     47  41  80 S3        29.85S
MINOT          CLEAR     66  41  40 SW14G23   29.84S
MINOT AFB      CLEAR     60  43  53 SW13      29.82S
$$

NDZ018>021-031>035-040>046-051100-
SOUTHWEST NORTH DAKOTA

CITY           SKY/WX    TMP DP  RH WIND       PRES   REMARKS
BISMARCK       CLEAR     56  44  64 W3        29.93R
DICKINSON      CLEAR     50  40  68 S8        29.90F
GARRISON         N/A     50  41  71 SW5       29.89S
HETTINGER ARPT CLEAR     53  40  61 SE6       29.96F
$$

NDZ004>008-012>016-024-026-027-054-051100-
NORTHEAST NORTH DAKOTA

CITY           SKY/WX    TMP DP  RH WIND       PRES   REMARKS
GRAND FORKS    CLEAR     53  33  46 S10       29.83S
GRND FRKS AFB  CLEAR     59  39  47 W10       29.82F
DEVILS LAKE    CLEAR     55  45  68 W8        29.86S
$$

NDZ022-023-025-028>030-036>039-047>053-051100-
SOUTHEAST NORTH DAKOTA

CITY           SKY/WX    TMP DP  RH WIND       PRES   REMARKS
FARGO          PTCLDY    55  30  38 S9        29.90F
JAMESTOWN      CLEAR     54  42  64 SW8       29.89F
$$





USA.gov is the U.S. government's official web portal to all federal, state and local government web resources and services.